Tracking 35334 objects as of 13-Sep-2026
HD Live streaming from Space Station
objects crossing your sky now

STARLINK-38144

Track STARLINK-38144 now!
10-day predictions
STARLINK-38144 is classified as:


NORAD ID: 100256
Int'l Code: 2026-181L
Launch date: August 8, 2026
Source: United States (US)
Launch site: AIR FORCE WESTERN TEST RANGE (AFWTR)
Your satellite tracking list
Your tracking list is empty




NASA's NSSDC Master Catalog

Two Line Element Set (TLE):
1 A0256U 26181L   26256.10866124  .00069291  00000-0  46112-3 0  9994
2 A0256  97.2833 299.2900 0001484  83.1448 276.9986 15.75217062  6798
Source of the keplerian elements: AFSPC